Flag for India Weather past 2 weeks in Navi Mumbai, Maharashtra, India

Now
79 °F

Rain. More clouds than sun.


Feels Like: 83 °F
Forecast: 78 / 84 °F
Wind: 15 mph from Southwest

Location: Bombay / Santacruz

Current Time: Jul 31, 2014 at 11:26:07 AM

Latest Report: Jul 31, 2014 at 9:40 AM


Visibility: 1 mi

Pressure: 29.62 "Hg

Humidity: 94%

Dew point: 77 °F

Location of Navi MumbaiLocation

Historic Weather in Navi Mumbai — Graph

°F

Navi Mumbai temperature yesterday

Maximum temperature yesterday: 84 °F (at 10:40 AM)
Minimum temperature yesterday: 81 °F (at 5:40 AM)
Average temperature yesterday: 83 °F

Past Weeks' High & Low Weather Summary

 TemperatureHumidityPressure
High88 °F (Jul 21, 11:40 AM)100% (Jul 17, 5:40 PM)29.80 "Hg (Jul 17, 5:40 PM)
Low77 °F (Jul 27, 2:40 PM)70% (Jul 26, 2:40 PM)29.50 "Hg (Jul 16, 4:40 PM)
Average83 °F88%29.65 "Hg
* Reported Jul 16 12:40 PM — Jul 31 9:40 AM, Navi Mumbai, Weather by CustomWeather, © 2014

Note: Actual official high and low records may vary slightly from our data, if they occured in-between our weather recording intervals... More about our weather records

Advertising

Navi Mumbai weather history for previous 24 hours

 ConditionsComfort  
Time TempWeatherWind HumidityBarometerVisibility
9:40 AM
Jul 31
79 °FRain. More clouds than sun.15 mph94%29.62 "Hg1 mi
6:40 AM79 °FRain. Mostly cloudy.14 mph94%29.59 "Hg1 mi
5:40 AM81 °FRain. Mostly cloudy.13 mph94%29.56 "Hg1 mi
4:40 AM79 °FHeavy rain. Mostly cloudy.8 mph94%29.56 "Hg1 mi
3:40 AM81 °FLight rain. Partly cloudy.12 mph94%29.56 "Hg1 mi
2:40 AM81 °FSprinkles. Partly cloudy.16 mph94%29.56 "Hg1 mi
1:40 AM79 °FSprinkles. Partly cloudy.12 mph94%29.59 "Hg1 mi
10:40 PM
Jul 30
82 °FPartly cloudy.10 mph94%29.62 "Hg1 mi
9:40 PM82 °FMostly cloudy.14 mph94%29.62 "Hg1 mi
8:40 PM82 °FMostly cloudy.13 mph94%29.62 "Hg1 mi
7:40 PM82 °FMore clouds than sun.12 mph94%29.59 "Hg1 mi
6:40 PM82 °FBroken clouds.14 mph94%29.59 "Hg2 mi
5:40 PM82 °FBroken clouds.14 mph94%29.59 "Hg2 mi
3:40 PM84 °FMore clouds than sun.8 mph89%29.59 "Hg2 mi
2:40 PM84 °FMore clouds than sun.9 mph89%29.59 "Hg2 mi
1:40 PM84 °FMore clouds than sun.12 mph89%29.62 "Hg2 mi
12:40 PM82 °FMore clouds than sun.12 mph89%29.62 "Hg2 mi
11:40 AM82 °FMore clouds than sun.15 mph94%29.65 "Hg2 mi
Weather by CustomWeather, © 2014

See weather overviewHow to use our weather pages